| time (UTC) | temp F | wind direction | speed knots | gust knots | rain 1hr in | rain 24hr in | rain mn in | humidity % | barometer mb |
| 20260505194705 | 84 | 242 | 3.5 | 7.8 | 0.00 | 0.00 | 0.00 | 34 | 1006.6 |
| 20260505194205 | 84 | 278 | 5.2 | 14.8 | 0.00 | 0.00 | 0.00 | 32 | 1006.7 |
| 20260505193705 | 83 | 196 | 2.6 | 7.0 | 0.00 | 0.00 | 0.00 | 37 | 1006.6 |
| 20260505193204 | 83 | 218 | 1.7 | 4.3 | 0.00 | 0.00 | 0.00 | 39 | 1006.6 |
| 20260505192705 | 83 | 233 | 2.6 | 7.8 | 0.00 | 0.00 | 0.00 | 36 | 1006.6 |
| 20260505192205 | 83 | 217 | 2.6 | 7.8 | 0.00 | 0.00 | 0.00 | 35 | 1006.7 |
| 20260505191705 | 84 | 199 | 2.6 | 10.4 | 0.00 | 0.00 | 0.00 | 39 | 1006.8 |
| 20260505191204 | 84 | 204 | 4.3 | 10.4 | 0.00 | 0.00 | 0.00 | 36 | 1006.9 |
| 20260505190705 | 83 | 205 | 5.2 | 10.4 | 0.00 | 0.00 | 0.00 | 38 | 1006.9 |
| 20260505190205 | 84 | 211 | 1.7 | 7.0 | 0.00 | 0.00 | 0.00 | 38 | 1007.0 |
| 20260505185705 | 83 | 183 | 2.6 | 7.8 | 0.00 | 0.00 | 0.00 | 37 | 1007.0 |
| 20260505185205 | 82 | 184 | 5.2 | 11.3 | 0.00 | 0.00 | 0.00 | 38 | 1007.1 |
| 20260505184705 | 83 | 186 | 5.2 | 12.2 | 0.00 | 0.00 | 0.00 | 36 | 1007.2 |
| 20260505184205 | 84 | 189 | 3.5 | 7.8 | 0.00 | 0.00 | 0.00 | 33 | 1007.3 |
| 20260505183704 | 83 | 273 | 1.7 | 10.4 | 0.00 | 0.00 | 0.00 | 37 | 1007.3 |
| 20260505183205 | 83 | 268 | 2.6 | 6.1 | 0.00 | 0.00 | 0.00 | 37 | 1007.5 |
| 20260505181704 | 83 | 210 | 1.7 | 11.3 | 0.00 | 0.00 | 0.00 | 36 | 1007.6 |
| 20260505181205 | 83 | 209 | 4.3 | 11.3 | 0.00 | 0.00 | 0.00 | 36 | 1007.7 |
| 20260505180205 | 83 | 198 | 5.2 | 13.9 | 0.00 | 0.00 | 0.00 | 35 | 1007.7 |
| 20260505175205 | 83 | 211 | 2.6 | 7.0 | 0.00 | 0.00 | 0.00 | 38 | 1007.7 |
| 20260505174705 | 83 | 199 | 3.5 | 10.4 | 0.00 | 0.00 | 0.00 | 36 | 1008.0 |
| 20260505174205 | 83 | 239 | 5.2 | 11.3 | 0.00 | 0.00 | 0.00 | 36 | 1008.0 |
| 20260505173204 | 83 | 262 | 2.6 | 8.7 | 0.00 | 0.00 | 0.00 | 35 | 1007.8 |
| 20260505172704 | 83 | 201 | 4.3 | 8.7 | 0.00 | 0.00 | 0.00 | 37 | 1007.9 |
| 20260505172205 | 82 | 185 | 1.7 | 6.1 | 0.00 | 0.00 | 0.00 | 38 | 1008.0 |
| 20260505171705 | 82 | 189 | 6.1 | 13.0 | 0.00 | 0.00 | 0.00 | 36 | 1008.0 |
| 20260505170705 | 81 | 209 | 2.6 | 10.4 | 0.00 | 0.00 | 0.00 | 39 | 1008.1 |
| 20260505170205 | 79 | 242 | 4.3 | 12.2 | 0.00 | 0.00 | 0.00 | 40 | 1008.4 |
| 20260505164704 | 79 | 257 | 2.6 | 7.0 | 0.00 | 0.00 | 0.00 | 44 | 1008.7 |
| 20260505164204 | 80 | 206 | 2.6 | 10.4 | 0.00 | 0.00 | 0.00 | 41 | 1008.8 |
| 20260505163704 | 81 | 217 | 2.6 | 17.4 | 0.00 | 0.00 | 0.00 | 42 | 1008.9 |
| 20260505163205 | 81 | 227 | 4.3 | 10.4 | 0.00 | 0.00 | 0.00 | 40 | 1009.2 |
| 20260505162704 | 81 | 208 | 5.2 | 13.0 | 0.00 | 0.00 | 0.00 | 40 | 1009.1 |
| 20260505162204 | 81 | 235 | 3.5 | 10.4 | 0.00 | 0.00 | 0.00 | 44 | 1009.2 |
| 20260505161704 | 81 | 268 | 4.3 | 10.4 | 0.00 | 0.00 | 0.00 | 41 | 1009.2 |
| 20260505161204 | 80 | 219 | 3.5 | 10.4 | 0.00 | 0.00 | 0.00 | 42 | 1009.2 |
| 20260505160704 | 80 | 220 | 5.2 | 10.4 | 0.00 | 0.00 | 0.00 | 41 | 1009.3 |
| 20260505160204 | 80 | 221 | 4.3 | 11.3 | 0.00 | 0.00 | 0.00 | 43 | 1009.3 |
| 20260505153204 | 79 | 283 | 2.6 | 10.4 | 0.00 | 0.00 | 0.00 | 46 | 1009.3 |
| 20260505152704 | 78 | 217 | 1.7 | 7.0 | 0.00 | 0.00 | 0.00 | 47 | 1009.3 |
| 20260505152204 | 78 | 295 | 2.6 | 7.8 | 0.00 | 0.00 | 0.00 | 44 | 1009.3 |
| 20260505151704 | 78 | 290 | 2.6 | 7.0 | 0.00 | 0.00 | 0.00 | 46 | 1009.5 |
| 20260505151204 | 78 | 263 | 4.3 | 10.4 | 0.00 | 0.00 | 0.00 | 48 | 1009.4 |
| 20260505150704 | 77 | 194 | 2.6 | 7.8 | 0.00 | 0.00 | 0.00 | 46 | 1009.4 |
| 20260505150215 | 77 | 194 | 2.6 | 6.1 | 0.00 | 0.00 | 0.00 | 50 | 1009.5 |
| 20260505140205 | 71 | 176 | 1.7 | 2.6 | 0.00 | 0.00 | 0.00 | 57 | 1010.0 |
| 20260505130204 | 65 | 172 | 1.7 | 6.1 | 0.00 | 0.00 | 0.00 | 63 | 1010.4 |
| 20260505124707 | 64 | 199 | 0.9 | 2.6 | 0.00 | 0.00 | 0.00 | 65 | 1010.5 |
| 20260505124205 | 63 | 182 | 0.9 | 2.6 | 0.00 | 0.00 | 0.00 | 66 | 1010.5 |
| 20260505123205 | 62 | 155 | 0.9 | 2.6 | 0.00 | 0.00 | 0.00 | 67 | 1010.6 |
| 20260505122704 | 62 | 175 | 0.9 | 2.6 | 0.00 | 0.00 | 0.00 | 69 | 1010.6 |
| 20260505122205 | 61 | 148 | 0.9 | 2.6 | 0.00 | 0.00 | 0.00 | 70 | 1010.6 |
| 20260505121705 | 60 | 148 | 0.9 | 1.7 | 0.00 | 0.00 | 0.00 | 70 | 1010.7 |
| 20260505121205 | 60 | 213 | 0.9 | 1.7 | 0.00 | 0.00 | 0.00 | 72 | 1010.6 |
| 20260505120205 | 59 | 355 | 0.0 | 0.0 | 0.00 | 0.00 | 0.00 | 75 | 1010.6 |
| 20260505115707 | 58 | 355 | 0.0 | 0.0 | 0.00 | 0.00 | 0.00 | 80 | 1010.5 |
| 20260505115205 | 57 | 355 | 0.0 | 0.0 | 0.00 | 0.00 | 0.00 | 80 | 1010.4 |
| 20260505114705 | 57 | 355 | 0.0 | 0.0 | 0.00 | 0.00 | 0.00 | 82 | 1010.4 |
| 20260505114205 | 56 | 355 | 0.0 | 0.0 | 0.00 | 0.00 | 0.00 | 82 | 1010.4 |
| 20260505113705 | 56 | 355 | 0.0 | 0.9 | 0.00 | 0.00 | 0.00 | 82 | 1010.3 |
| 20260505113205 | 56 | 355 | 0.0 | 0.0 | 0.00 | 0.00 | 0.00 | 82 | 1010.3 |
| 20260505112705 | 57 | 355 | 0.0 | 1.7 | 0.00 | 0.00 | 0.00 | 81 | 1010.3 |
| 20260505112206 | 57 | 355 | 0.0 | 1.7 | 0.00 | 0.00 | 0.00 | 80 | 1010.3 |
| 20260505111704 | 56 | 355 | 0.9 | 1.7 | 0.00 | 0.00 | 0.00 | 82 | 1010.1 |
| 20260505111205 | 56 | 355 | 0.0 | 0.0 | 0.00 | 0.00 | 0.00 | 83 | 1010.0 |
| 20260505110705 | 55 | 355 | 0.0 | 0.0 | 0.00 | 0.00 | 0.00 | 85 | 1010.0 |
| 20260505102205 | 52 | 355 | 0.0 | 0.0 | 0.00 | 0.00 | 0.00 | 87 | 1009.9 |
| 20260505101705 | 51 | 355 | 0.0 | 0.0 | 0.00 | 0.00 | 0.00 | 87 | 1009.9 |
| 20260505101205 | 51 | 355 | 0.0 | 0.0 | 0.00 | 0.00 | 0.00 | 87 | 1009.9 |
| 20260505100705 | 50 | 355 | 0.0 | 0.0 | 0.00 | 0.00 | 0.00 | 86 | 1009.8 |
| 20260505100205 | 50 | 355 | 0.0 | 0.0 | 0.00 | 0.00 | 0.00 | 85 | 1009.7 |
| 20260505095704 | 50 | 355 | 0.0 | 0.0 | 0.00 | 0.00 | 0.00 | 85 | 1009.5 |
| 20260505095205 | 51 | 355 | 0.0 | 0.0 | 0.00 | 0.00 | 0.00 | 85 | 1009.5 |
| 20260505094704 | 51 | 355 | 0.0 | 0.0 | 0.00 | 0.00 | 0.00 | 84 | 1009.5 |
| 20260505094204 | 52 | 355 | 0.0 | 0.0 | 0.00 | 0.00 | 0.00 | 85 | 1009.4 |
| 20260505092705 | 52 | 355 | 0.0 | 0.0 | 0.00 | 0.00 | 0.00 | 84 | 1009.2 |
| 20260505092204 | 52 | 355 | 0.0 | 0.0 | 0.00 | 0.00 | 0.00 | 84 | 1009.3 |
| 20260505090705 | 52 | 355 | 0.0 | 0.0 | 0.00 | 0.00 | 0.00 | 84 | 1009.3 |
| 20260505090205 | 53 | 355 | 0.0 | 0.0 | 0.00 | 0.00 | 0.00 | 82 | 1009.3 |
| 20260505085704 | 53 | 355 | 0.0 | 0.0 | 0.00 | 0.00 | 0.00 | 81 | 1009.4 |
| 20260505085205 | 53 | 355 | 0.0 | 0.0 | 0.00 | 0.00 | 0.00 | 82 | 1009.4 |
| 20260505084704 | 53 | 355 | 0.0 | 0.0 | 0.00 | 0.00 | 0.00 | 82 | 1009.4 |
| 20260505084205 | 53 | 355 | 0.0 | 0.0 | 0.00 | 0.00 | 0.00 | 82 | 1009.4 |
| 20260505083205 | 53 | 355 | 0.0 | 0.0 | 0.00 | 0.00 | 0.00 | 82 | 1009.3 |
| 20260505082705 | 53 | 355 | 0.0 | 0.0 | 0.00 | 0.00 | 0.00 | 81 | 1009.2 |
| 20260505081705 | 54 | 355 | 0.0 | 0.0 | 0.00 | 0.00 | 0.00 | 80 | 1009.2 |
| 20260505080205 | 54 | 355 | 0.0 | 0.0 | 0.00 | 0.00 | 0.00 | 79 | 1009.1 |
| 20260505075705 | 54 | 355 | 0.0 | 0.0 | 0.00 | 0.00 | 0.00 | 79 | 1009.1 |
| 20260505075205 | 54 | 355 | 0.0 | 0.0 | 0.00 | 0.00 | 0.00 | 78 | 1009.1 |
| 20260505074705 | 54 | 355 | 0.0 | 0.0 | 0.00 | 0.00 | 0.00 | 78 | 1009.1 |
| 20260505073704 | 55 | 355 | 0.0 | 0.0 | 0.00 | 0.00 | 0.00 | 77 | 1009.1 |
| 20260505073204 | 55 | 355 | 0.0 | 0.0 | 0.00 | 0.00 | 0.00 | 77 | 1009.0 |
| 20260505072205 | 55 | 355 | 0.0 | 0.0 | 0.00 | 0.00 | 0.00 | 76 | 1008.9 |
| 20260505071704 | 55 | 355 | 0.0 | 0.0 | 0.00 | 0.00 | 0.00 | 76 | 1008.9 |
| 20260505071204 | 56 | 355 | 0.0 | 0.0 | 0.00 | 0.00 | 0.00 | 76 | 1008.9 |
| 20260505070705 | 55 | 355 | 0.0 | 0.0 | 0.00 | 0.00 | 0.00 | 76 | 1008.9 |
| 20260505070205 | 56 | 355 | 0.0 | 0.0 | 0.00 | 0.00 | 0.00 | 75 | 1008.9 |
| 20260505065705 | 56 | 355 | 0.0 | 0.0 | 0.00 | 0.00 | 0.00 | 75 | 1008.9 |
| 20260505065207 | 56 | 355 | 0.0 | 0.0 | 0.00 | 0.00 | 0.00 | 75 | 1008.9 |
| 20260505064704 | 56 | 355 | 0.0 | 0.0 | 0.00 | 0.00 | 0.00 | 75 | 1009.0 |
| 20260505064205 | 57 | 355 | 0.0 | 0.0 | 0.00 | 0.00 | 0.00 | 77 | 1009.1 |
| 20260505063705 | 57 | 355 | 0.0 | 0.0 | 0.00 | 0.00 | 0.00 | 76 | 1009.1 |
| 20260505063204 | 57 | 355 | 0.0 | 0.0 | 0.00 | 0.00 | 0.00 | 75 | 1009.0 |
| 20260505062204 | 57 | 355 | 0.0 | 0.0 | 0.00 | 0.00 | 0.00 | 74 | 1009.1 |
| 20260505061704 | 57 | 355 | 0.0 | 0.0 | 0.00 | 0.00 | 0.00 | 73 | 1009.2 |
| 20260505061204 | 57 | 355 | 0.0 | 0.0 | 0.00 | 0.00 | 0.00 | 73 | 1009.4 |
| 20260505060704 | 57 | 355 | 0.0 | 0.0 | 0.00 | 0.00 | 0.00 | 74 | 1009.3 |
| 20260505060204 | 57 | 355 | 0.0 | 0.0 | 0.00 | 0.00 | 0.00 | 76 | 1009.3 |
| 20260505055704 | 57 | 355 | 0.0 | 0.0 | 0.00 | 0.00 | 0.00 | 75 | 1009.3 |
| 20260505055204 | 58 | 355 | 0.0 | 0.0 | 0.00 | 0.00 | 0.00 | 72 | 1009.3 |
| 20260505054705 | 58 | 355 | 0.0 | 0.0 | 0.00 | 0.00 | 0.00 | 72 | 1009.1 |
| 20260505054204 | 59 | 355 | 0.0 | 0.0 | 0.00 | 0.00 | 0.00 | 72 | 1009.2 |
| 20260505052704 | 58 | 355 | 0.0 | 0.0 | 0.00 | 0.00 | 0.00 | 70 | 1009.2 |
| 20260505052204 | 58 | 355 | 0.0 | 0.0 | 0.00 | 0.00 | 0.00 | 72 | 1009.2 |
| 20260505051704 | 58 | 355 | 0.0 | 0.0 | 0.00 | 0.00 | 0.00 | 72 | 1009.2 |
| 20260505051205 | 58 | 355 | 0.0 | 0.0 | 0.00 | 0.00 | 0.00 | 69 | 1009.2 |
| 20260505050204 | 58 | 355 | 0.0 | 0.0 | 0.00 | 0.00 | 0.00 | 68 | 1009.3 |
| 20260505041704 | 58 | 355 | 0.9 | 1.7 | 0.00 | 0.00 | 0.00 | 72 | 1009.0 |
| 20260505041204 | 58 | 355 | 0.0 | 0.0 | 0.00 | 0.00 | 0.00 | 73 | 1009.0 |
| 20260505040705 | 58 | 355 | 0.0 | 0.0 | 0.00 | 0.00 | 0.00 | 72 | 1009.0 |
| 20260505040204 | 58 | 355 | 0.0 | 0.0 | 0.00 | 0.00 | 0.00 | 71 | 1008.9 |
| 20260505035704 | 58 | 355 | 0.0 | 0.0 | 0.00 | 0.00 | 0.00 | 69 | 1008.8 |
| 20260505035204 | 57 | 355 | 0.0 | 0.0 | 0.00 | 0.00 | 0.00 | 72 | 1008.8 |
| 20260505034706 | 57 | 355 | 0.0 | 0.0 | 0.00 | 0.00 | 0.00 | 70 | 1008.8 |
| 20260505034205 | 58 | 355 | 0.0 | 0.0 | 0.00 | 0.00 | 0.00 | 67 | 1008.9 |
| 20260505033705 | 57 | 355 | 0.0 | 0.0 | 0.00 | 0.00 | 0.00 | 68 | 1008.9 |
| 20260505033205 | 57 | 355 | 0.0 | 0.0 | 0.00 | 0.00 | 0.00 | 68 | 1008.8 |
| 20260505032705 | 57 | 355 | 0.0 | 0.0 | 0.00 | 0.00 | 0.00 | 68 | 1008.8 |
| 20260505032205 | 58 | 355 | 0.0 | 0.0 | 0.00 | 0.00 | 0.00 | 67 | 1008.7 |
| 20260505031205 | 59 | 355 | 0.0 | 0.0 | 0.00 | 0.00 | 0.00 | 64 | 1008.8 |
| 20260505030705 | 60 | 355 | 0.0 | 1.7 | 0.00 | 0.00 | 0.00 | 63 | 1008.8 |
| 20260505030205 | 60 | 355 | 0.0 | 1.7 | 0.00 | 0.00 | 0.00 | 64 | 1008.9 |
| 20260505025205 | 61 | 355 | 0.9 | 0.9 | 0.00 | 0.00 | 0.00 | 62 | 1008.9 |
| 20260505024706 | 60 | 355 | 0.9 | 0.9 | 0.00 | 0.00 | 0.00 | 62 | 1008.9 |
| 20260505024205 | 61 | 355 | 0.9 | 0.9 | 0.00 | 0.00 | 0.00 | 63 | 1008.9 |
| 20260505023705 | 61 | 355 | 0.9 | 1.7 | 0.00 | 0.00 | 0.00 | 63 | 1008.8 |
| 20260505023204 | 61 | 355 | 0.9 | 1.7 | 0.00 | 0.00 | 0.00 | 63 | 1008.8 |
| 20260505022705 | 61 | 355 | 0.0 | 1.7 | 0.00 | 0.00 | 0.00 | 63 | 1008.8 |
| 20260505022205 | 61 | 355 | 0.9 | 0.9 | 0.00 | 0.00 | 0.00 | 63 | 1008.5 |
| 20260505020705 | 60 | 355 | 0.0 | 1.7 | 0.00 | 0.00 | 0.00 | 64 | 1008.6 |
| 20260505020205 | 61 | 355 | 0.0 | 1.7 | 0.00 | 0.00 | 0.00 | 63 | 1008.7 |
| 20260505015705 | 61 | 355 | 0.9 | 1.7 | 0.00 | 0.00 | 0.00 | 63 | 1008.8 |
| 20260505015205 | 61 | 355 | 0.9 | 0.9 | 0.00 | 0.00 | 0.00 | 63 | 1008.7 |
| 20260505014205 | 61 | 355 | 0.9 | 1.7 | 0.00 | 0.00 | 0.00 | 62 | 1008.6 |
| 20260505013705 | 61 | 355 | 0.0 | 0.0 | 0.00 | 0.00 | 0.00 | 62 | 1008.6 |
| 20260505013207 | 60 | 355 | 0.0 | 1.7 | 0.00 | 0.00 | 0.00 | 62 | 1008.6 |
| 20260505012205 | 61 | 5 | 0.0 | 1.7 | 0.00 | 0.00 | 0.00 | 63 | 1008.4 |
| 20260505011705 | 62 | 5 | 0.9 | 0.9 | 0.00 | 0.00 | 0.00 | 61 | 1008.4 |
| 20260505011205 | 62 | 5 | 0.9 | 1.7 | 0.00 | 0.00 | 0.00 | 60 | 1008.4 |
| 20260505010705 | 62 | 5 | 0.9 | 1.7 | 0.00 | 0.00 | 0.00 | 60 | 1008.4 |
| 20260505005705 | 62 | 5 | 0.9 | 1.7 | 0.00 | 0.00 | 0.00 | 61 | 1008.4 |
| 20260505005205 | 63 | 5 | 0.9 | 1.7 | 0.00 | 0.00 | 0.00 | 61 | 1008.3 |
| 20260505004705 | 63 | 5 | 0.0 | 1.7 | 0.00 | 0.00 | 0.00 | 60 | 1008.2 |
| 20260505004205 | 63 | 5 | 0.0 | 0.9 | 0.00 | 0.00 | 0.00 | 60 | 1008.1 |
| 20260505003704 | 63 | 5 | 0.9 | 0.9 | 0.00 | 0.00 | 0.00 | 59 | 1008.0 |
| 20260505003205 | 64 | 5 | 0.9 | 1.7 | 0.00 | 0.00 | 0.00 | 58 | 1008.1 |
| 20260505002705 | 64 | 5 | 0.9 | 1.7 | 0.00 | 0.00 | 0.00 | 58 | 1008.0 |
| 20260505002204 | 64 | 5 | 0.0 | 0.0 | 0.00 | 0.00 | 0.00 | 60 | 1007.9 |
| 20260505001705 | 65 | 5 | 0.9 | 1.7 | 0.00 | 0.00 | 0.00 | 58 | 1007.9 |
| 20260505001205 | 64 | 5 | 0.9 | 0.9 | 0.00 | 0.00 | 0.00 | 58 | 1007.9 |
| 20260505000705 | 65 | 5 | 0.9 | 2.6 | 0.00 | 0.00 | 0.00 | 56 | 1007.9 |
| 20260505000204 | 65 | 211 | 0.9 | 2.6 | 0.00 | 0.00 | 0.00 | 56 | 1007.9 |
| 20260504235704 | 66 | 178 | 0.0 | 1.7 | 0.00 | 0.00 | 0.00 | 56 | 1007.8 |
| 20260504235205 | 66 | 178 | 0.9 | 1.7 | 0.00 | 0.00 | 0.00 | 56 | 1007.8 |
| 20260504234705 | 68 | 173 | 0.9 | 5.2 | 0.00 | 0.00 | 0.00 | 52 | 1007.8 |
| 20260504234204 | 67 | 203 | 0.9 | 2.6 | 0.00 | 0.00 | 0.00 | 54 | 1007.8 |
| 20260504233705 | 68 | 203 | 0.9 | 2.6 | 0.00 | 0.00 | 0.00 | 52 | 1007.7 |
| 20260504233204 | 70 | 202 | 2.6 | 5.2 | 0.00 | 0.00 | 0.00 | 47 | 1007.7 |
| 20260504232704 | 70 | 177 | 1.7 | 5.2 | 0.00 | 0.00 | 0.00 | 46 | 1007.6 |
| 20260504231704 | 71 | 182 | 2.6 | 7.8 | 0.00 | 0.00 | 0.00 | 45 | 1007.7 |
| 20260504231204 | 71 | 154 | 2.6 | 5.2 | 0.00 | 0.00 | 0.00 | 43 | 1007.7 |
| 20260504230704 | 72 | 184 | 2.6 | 7.0 | 0.00 | 0.00 | 0.00 | 42 | 1007.7 |
| 20260504230205 | 72 | 191 | 2.6 | 10.4 | 0.00 | 0.00 | 0.00 | 42 | 1007.8 |
| 20260504225205 | 72 | 211 | 2.6 | 10.4 | 0.00 | 0.00 | 0.00 | 42 | 1007.7 |
| 20260504224705 | 73 | 195 | 2.6 | 10.4 | 0.00 | 0.00 | 0.00 | 41 | 1007.7 |
| 20260504224204 | 73 | 183 | 2.6 | 10.4 | 0.00 | 0.00 | 0.00 | 42 | 1007.7 |
| 20260504223705 | 73 | 186 | 6.1 | 15.6 | 0.00 | 0.00 | 0.00 | 41 | 1007.7 |
| 20260504223204 | 73 | 185 | 2.6 | 12.2 | 0.00 | 0.00 | 0.00 | 41 | 1007.7 |
| 20260504222705 | 73 | 188 | 5.2 | 13.0 | 0.00 | 0.00 | 0.00 | 40 | 1007.7 |
| 20260504222204 | 73 | 186 | 5.2 | 11.3 | 0.00 | 0.00 | 0.00 | 39 | 1007.8 |
| 20260504221705 | 74 | 190 | 5.2 | 12.2 | 0.00 | 0.00 | 0.00 | 40 | 1007.8 |
| 20260504221204 | 74 | 187 | 5.2 | 12.2 | 0.00 | 0.00 | 0.00 | 39 | 1007.8 |
| 20260504220705 | 74 | 173 | 2.6 | 7.8 | 0.00 | 0.00 | 0.00 | 40 | 1007.8 |
| 20260504215704 | 74 | 194 | 3.5 | 7.8 | 0.00 | 0.00 | 0.00 | 40 | 1007.8 |
| 20260504215204 | 74 | 178 | 1.7 | 13.0 | 0.00 | 0.00 | 0.00 | 39 | 1007.8 |
| 20260504214704 | 74 | 217 | 2.6 | 6.1 | 0.00 | 0.00 | 0.00 | 39 | 1007.7 |
| 20260504214204 | 74 | 212 | 6.1 | 11.3 | 0.00 | 0.00 | 0.00 | 40 | 1007.7 |
| 20260504213704 | 74 | 200 | 4.3 | 8.7 | 0.00 | 0.00 | 0.00 | 39 | 1007.7 |
| 20260504212704 | 76 | 161 | 1.7 | 7.0 | 0.00 | 0.00 | 0.00 | 37 | 1007.7 |
| 20260504212204 | 76 | 180 | 4.3 | 10.4 | 0.00 | 0.00 | 0.00 | 36 | 1007.7 |
| 20260504211704 | 76 | 181 | 4.3 | 10.4 | 0.00 | 0.00 | 0.00 | 34 | 1007.7 |
| 20260504211204 | 76 | 217 | 2.6 | 7.8 | 0.00 | 0.00 | 0.00 | 35 | 1007.6 |
| 20260504210704 | 76 | 196 | 2.6 | 11.3 | 0.00 | 0.00 | 0.00 | 36 | 1007.6 |
| 20260504210205 | 76 | 210 | 1.7 | 7.0 | 0.00 | 0.00 | 0.00 | 34 | 1007.6 |
| 20260504205705 | 76 | 240 | 4.3 | 8.7 | 0.00 | 0.00 | 0.00 | 35 | 1007.6 |
| 20260504205205 | 77 | 203 | 2.6 | 7.0 | 0.00 | 0.00 | 0.00 | 34 | 1007.7 |
| 20260504204704 | 76 | 195 | 1.7 | 6.1 | 0.00 | 0.00 | 0.00 | 36 | 1007.6 |
| 20260504204204 | 76 | 203 | 1.7 | 6.1 | 0.00 | 0.00 | 0.00 | 34 | 1007.7 |
| 20260504203704 | 76 | 263 | 2.6 | 6.1 | 0.00 | 0.00 | 0.00 | 33 | 1007.7 |
| 20260504203204 | 76 | 263 | 2.6 | 6.1 | 0.00 | 0.00 | 0.00 | 34 | 1007.8 |
| 20260504202705 | 76 | 315 | 4.3 | 7.0 | 0.00 | 0.00 | 0.00 | 35 | 1007.9 |
| 20260504202204 | 77 | 219 | 4.3 | 8.7 | 0.00 | 0.00 | 0.00 | 35 | 1008.1 |
| 20260504201704 | 76 | 243 | 2.6 | 8.7 | 0.00 | 0.00 | 0.00 | 35 | 1008.1 |
| 20260504201205 | 76 | 214 | 1.7 | 6.1 | 0.00 | 0.00 | 0.00 | 34 | 1008.1 |
| 20260504200705 | 76 | 241 | 2.6 | 7.8 | 0.00 | 0.00 | 0.00 | 35 | 1008.3 |
| 20260504195704 | 77 | 236 | 1.7 | 10.4 | 0.00 | 0.00 | 0.00 | 37 | 1008.4 |
| 20260504195204 | 77 | 198 | 0.9 | 4.3 | 0.00 | 0.00 | 0.00 | 35 | 1008.4 |